PST,Max TemperatureF,Mean TemperatureF,Min TemperatureF,Max Dew PointF,MeanDew PointF,Min DewpointF,Max Humidity, Mean Humidity, Min Humidity, Max Sea Level PressureIn, Mean Sea Level PressureIn, Min Sea Level PressureIn, Max VisibilityMiles, Mean VisibilityMiles, Min VisibilityMiles, Max Wind SpeedMPH, Mean Wind SpeedMPH, Max Gust SpeedMPH,PrecipitationIn, CloudCover, Events, WindDirDegrees
2013-2-1,44,42,39,43,41,39,100,95,87,30.45,30.42,30.35,20,17,12,6,3,,0.00,7,Rain,279
2013-2-2,41,40,39,41,40,39,100,96,88,30.45,30.34,30.26,20,15,1,7,3,,0.00,8,,357
2013-2-3,43,41,39,43,41,39,100,98,93,30.28,30.23,30.14,20,10,2,14,4,,0.03,8,Rain,173
2013-2-4,46,42,39,45,42,39,100,95,87,30.13,30.01,29.80,20,17,8,24,6,37,0.00,8,Rain,158
2013-2-5,46,44,42,45,42,39,100,91,79,29.76,29.69,29.66,15,10,3,29,21,34,0.16,7,Rain,144
2013-2-6,45,42,40,43,40,37,100,89,75,29.89,29.82,29.68,20,15,5,30,15,39,0.24,8,Rain,151
2013-2-7,49,44,39,43,38,34,93,83,58,30.21,29.93,29.65,20,18,10,28,14,39,0.08,6,Rain,167
2013-2-8,43,37,31,39,35,32,100,87,72,30.31,30.28,30.23,20,20,19,5,3,,0.00,6,,289
2013-2-9,43,39,35,43,40,36,100,96,93,30.36,30.30,30.27,20,12,4,7,2,,0.00,8,Rain,25
2013-2-10,43,42,40,43,41,37,100,96,87,30.39,30.36,30.32,20,11,3,6,2,,0.03,7,Rain,229
2013-2-11,45,42,39,42,39,36,93,88,81,30.33,30.32,30.30,20,16,3,7,3,,0.01,8,Rain,186
2013-2-12,47,44,41,45,43,41,100,95,87,30.33,30.26,30.17,20,18,15,22,9,24,0.01,7,Rain,154
2013-2-13,47,40,32,41,39,34,100,90,66,30.46,30.38,30.25,20,19,15,7,3,,0.00,6,Rain,294
2013-2-14,43,42,40,43,42,39,100,100,93,30.58,30.53,30.45,20,7,1,7,2,,0.12,8,Rain,144
2013-2-15,44,42,41,45,42,41,100,98,91,30.59,30.43,30.20,20,8,0,5,1,,0.04,8,Fog-Rain,291
2013-2-16,48,42,37,45,40,32,100,93,75,30.17,30.11,30.07,20,15,7,9,2,,0.01,6,Rain,314
2013-2-17,44,37,30,36,33,30,93,79,57,30.23,30.18,30.11,20,20,19,9,5,,0.00,5,,288
2013-2-18,43,38,34,41,37,34,100,92,83,30.10,29.91,29.77,20,16,10,25,7,25,0.28,8,Rain,144
2013-2-19,46,40,33,39,36,32,100,90,71,29.99,29.89,29.79,20,17,8,10,6,,0.01,4,Rain,299
2013-2-20,42,36,30,41,37,30,100,96,91,30.01,29.99,29.96,20,16,10,17,5,20,0.04,7,Rain,169
2013-2-21,49,44,38,41,38,36,100,81,62,29.96,29.91,29.87,20,20,15,20,8,22,0.00,6,,163
2013-2-22,48,43,37,42,36,28,100,76,42,29.90,29.65,29.50,20,17,6,32,18,39,0.08,7,Rain,176
2013-2-23,48,40,33,36,34,30,100,75,50,30.29,30.11,29.77,20,20,19,14,4,20,0.00,6,Rain,316
2013-2-24,44,42,39,43,40,36,100,89,70,30.28,30.06,29.72,20,15,7,38,18,46,0.39,8,Rain,139
2013-2-25,51,44,37,43,33,21,100,66,30,30.23,29.92,29.60,20,17,8,34,20,40,0.16,5,Rain,313
2013-2-26,45,38,32,39,36,28,93,84,70,30.24,30.17,30.08,20,16,10,33,14,41,0.31,8,Rain,156
2013-2-27,43,36,30,39,36,29,100,89,79,30.29,30.24,30.14,20,19,15,18,6,22,0.02,6,Rain,152
2013-2-28,44,41,38,45,40,37,100,93,87,30.28,30.18,30.13,20,15,6,29,11,37,0.16,8,Rain,148